User: anonymous   Login
Location: Theydon Bois
(51.6750°N, 0.1050°E)
Time: 22:02:25
(UTC+00:00)
Language:

Cosmos 1315 Rocket - Orbit

View from above orbital plane
View from above orbital plane
View from above satellite
View from above satellite

Ground track
Ground track

The orbit data is extracted from the following two-line orbital elements,

1 12904U 81103B   18055.22963514 +.00000659 +00000-0 +43970-4 0  9997
2 12904 081.1800 347.6797 0027789 317.5161 042.3911 15.05457027530527
Epoch (UTC): 24 February 2018 05:30:40
Eccentricity: 0.0027789
inclination: 81.1800°
perigee height: 531 km
apogee height: 569 km
right ascension of ascending node: 347.6797°
argument of perigee: 317.5161°
revolutions per day: 15.05457027
mean anomaly at epoch: 42.3911°
orbit number at epoch: 53052

The dashed part of the orbit path shows where the satellite is in the earth's shadow,  

DLR